This demonstration page uses our WeatherBlox Daily Observations layout. Learn more.

Left ArrowRight Arrow

41.12389, -100.76542

Hourly Observations for November 18, 2015

Temp ( °F °C ) Dew Point ( °F °C ) Humidity (%) Winds ( mph kmh ) Pressure ( in mb ) Visibility ( mi km ) Precip ( " mm )
12:53 am 00:53 Cloudy 34 1.1 19 -7.2 54 54 NW 10 17 29.50 999 10 16 0.00 0.00
1:53 am 01:53 Cloudy 32 0 20 -6.7 61 61 WNW 5 7 29.49 999 10 16 0.00 0.00
2:53 am 02:53 Partly Cloudy 29 -1.7 19 -7.2 66 66 W 12 19 29.47 998 10 16 0.00 0.00
3:53 am 03:53 Clear 28 -2.2 19 -7.2 69 69 W 9 15 29.46 998 10 16 0.00 0.00
4:53 am 04:53 Clear 26 -3.3 18 -7.8 71 71 W 10 17 29.43 997 10 16 0.00 0.00
5:53 am 05:53 Clear 23 -5 17 -8.3 78 78 WNW 8 13 29.40 996 10 16 0.00 0.00
6:53 am 06:53 Clear 25 -3.9 19 -7.2 78 78 W 8 13 29.39 995 10 16 0.00 0.00
7:53 am 07:53 Sunny 23 -5 18 -7.8 81 81 WNW 6 9 29.39 995 10 16 0.00 0.00
8:53 am 08:53 Sunny 34 1.1 27 -2.8 76 76 W 7 11 29.35 994 10 16 0.00 0.00
9:53 am 09:53 Partly Cloudy 39 3.9 30 -1.1 70 70 WNW 7 11 29.33 993 10 16 0.00 0.00
10:53 am 10:53 Cloudy 45 7.2 30 -1.1 56 56 W 18 30 29.35 994 10 16 0.00 0.00
11:53 am 11:53 Cloudy with Light Rain 49 9.4 32 0 52 52 W 18 30 29.36 994 10 16 0.00 0.03
12:53 pm 12:53 Cloudy 51 10.6 33 0.6 50 50 WNW 20 31 29.39 995 10 16 0.00 0.03
1:53 pm 13:53 Cloudy 52 11.1 30 -1.1 43 43 NW 29 46 29.44 997 10 16 0.00 0.00
2:53 pm 14:53 Mostly Cloudy 52 11.1 32 0 47 47 NNW 30 48 29.49 999 10 16 0.00 0.00
3:53 pm 15:53 Mostly Cloudy 48 8.9 28 -2.2 46 46 NW 21 33 29.58 1002 10 16 0.00 0.00
4:53 pm 16:53 Mostly Cloudy 47 8.3 24 -4.4 41 41 NW 28 44 29.65 1004 10 16 0.00 0.00
5:53 pm 17:53 Partly Cloudy 44 6.7 24 -4.4 45 45 NW 17 28 29.75 1007 10 16 0.00 0.00
6:53 pm 18:53 Cloudy 42 5.6 22 -5.6 45 45 NNW 24 39 29.83 1010 10 16 0.00 0.00
7:53 pm 19:53 Mostly Clear 38 3.3 27 -2.8 65 65 NW 16 26 29.91 1013 10 16 0.00 0.00
8:53 pm 20:53 Clear 34 1.1 23 -5 64 64 NW 14 22 29.95 1014 10 16 0.00 0.00
9:53 pm 21:53 Clear 33 0.6 19 -7.2 56 56 NW 14 22 29.99 1016 10 16 0.00 0.00
10:53 pm 22:53 Clear 30 -1.1 18 -7.8 61 61 WNW 10 17 30.02 1017 10 16 0.00 0.00
11:53 pm 23:53 Clear 25 -3.9 17 -8.3 72 72 WNW 7 11 30.05 1018 10 16 0.00 0.00

Powered by AerisWeather